Theta_e
301 301 301 301 301 301 301 301 301 301 301 301 302 302 303 303 303 303 304 304 305 305 306 309 313 313 313 318 318 322 320 320 319 318 323 326 334 340 345 343 343 344 348 346 342 345 341
301 301 301 301 300 300 301 301 301 301 302 302 302 303 303 303 303 304 304 304 305 305 307 310 315 314 312 321 324 323 323 319 321 320 324 325 332 338 342 342 342 342 343 345 345 346 342
301 301 300 300 300 300 301 301 301 301 301 302 302 302 302 303 303 304 304 305 305 306 307 311 314 317 317 321 325 321 323 325 323 323 323 325 329 334 340 343 341 340 342 343 344 344 342
300 300 300 300 300 301 301 301 301 301 302 302 302 302 302 303 303 304 304 304 305 308 312 310 314 315 320 326 325 322 318 323 325 327 325 325 329 332 336 339 341 340 340 344 344 344 341
300 300 300 301 301 301 301 301 301 302 302 302 302 302 302 302 303 303 304 308 311 313 315 314 319 319 325 326 325 324 320 321 326 330 329 327 329 330 333 339 341 339 341 342 344 343 341
300 300 301 301 301 301 301 301 301 302 302 302 302 302 302 302 302 306 309 312 314 316 324 320 323 324 323 326 326 325 324 322 326 330 331 331 332 332 333 337 343 340 340 339 343 343 340
300 300 301 301 301 301 301 301 301 302 302 302 302 302 302 302 303 309 312 312 312 321 314 320 326 323 325 327 325 323 324 321 327 331 335 334 335 335 333 335 337 339 338 336 338 339 341
301 301 301 301 301 301 301 301 301 301 302 302 302 302 302 302 305 309 312 312 310 309 311 311 313 314 320 325 326 324 323 323 328 334 335 336 337 334 333 334 335 337 338 336 335 337 338
301 301 301 301 301 301 302 302 302 302 302 302 302 302 302 303 307 310 312 311 309 310 311 311 312 314 315 318 322 326 323 323 328 333 337 337 335 334 334 335 333 336 337 336 336 336 338
301 301 301 301 301 301 302 302 302 302 302 302 302 302 302 302 308 311 311 308 308 309 312 314 317 317 315 316 320 326 323 323 329 331 337 336 334 333 334 334 334 333 335 334 335 336 337
301 301 301 301 301 301 302 302 302 302 302 302 302 302 302 307 307 311 308 307 308 310 315 322 321 321 319 317 322 322 326 323 330 329 333 337 333 332 330 332 330 329 329 331 332 334 335
301 301 301 302 302 302 302 302 302 302 303 302 302 302 305 308 310 309 307 307 309 313 314 321 322 322 322 319 319 324 326 323 327 328 330 334 333 331 329 328 328 328 328 328 329 331 336
301 301 301 301 302 302 302 302 302 303 303 303 303 304 307 308 308 307 307 308 310 312 314 317 318 318 320 323 320 321 327 328 326 328 332 332 334 333 329 329 328 327 327 329 329 330 331
301 302 302 302 302 303 303 304 304 303 304 303 303 306 309 309 307 307 307 310 310 311 313 313 314 315 319 322 324 322 325 329 324 326 329 330 331 332 329 329 329 328 328 329 332 331 328
302 303 303 304 304 305 305 305 305 305 306 305 305 310 311 309 307 308 309 311 311 312 311 310 312 315 319 321 321 325 325 328 326 325 330 330 331 330 330 329 330 329 329 329 329 329 329
303 303 304 305 305 305 303 303 303 304 305 306 307 310 312 309 307 309 311 310 310 310 309 309 311 311 313 314 317 320 326 327 328 325 326 329 331 330 330 330 329 330 330 329 330 332 333
303 304 305 305 304 302 302 302 302 303 304 307 310 311 310 309 308 309 310 309 309 308 309 310 309 309 311 315 315 319 323 327 325 328 327 326 330 330 331 330 330 330 331 329 329 330 331
303 304 305 305 303 302 301 301 301 301 304 306 310 313 310 308 310 309 309 308 308 309 309 309 309 309 312 313 315 317 323 324 321 322 327 327 326 331 333 331 330 329 331 332 332 335 332
303 304 305 304 303 302 302 301 301 300 302 305 310 312 310 308 310 309 308 308 307 309 309 308 308 310 310 310 313 316 317 318 319 321 324 326 330 332 333 333 332 331 330 331 331 331 336
303 304 304 304 303 302 302 301 301 300 301 305 310 312 310 308 308 309 308 307 308 308 309 308 308 309 310 310 310 314 315 317 317 319 321 322 328 333 335 335 334 333 330 331 331 333 332
302 302 303 304 304 303 302 301 301 300 300 307 310 310 309 310 309 309 308 309 309 309 308 307 308 309 309 309 310 311 313 313 316 319 321 326 331 331 331 333 333 331 330 331 332 334 334
301 302 302 303 303 302 302 301 301 300 301 307 307 309 308 308 309 309 309 309 309 308 306 306 308 309 308 307 309 311 311 312 315 315 317 322 328 331 333 333 333 333 331 330 330 330 332
301 301 301 302 302 301 301 301 300 300 303 306 306 304 305 307 309 310 310 309 307 308 307 306 308 307 307 308 308 308 308 309 311 313 316 320 325 329 333 333 333 335 333 332 331 331 331
301 301 301 301 301 300 300 300 301 302 304 305 305 304 303 307 308 309 309 309 309 308 307 306 307 308 308 307 307 307 308 310 311 313 314 317 321 326 330 332 336 333 333 332 332 331 332
299 300 301 302 303 303 303 303 304 304 306 305 306 305 302 307 308 309 309 309 309 308 308 308 308 308 307 307 309 310 311 312 312 313 313 316 318 323 330 332 333 333 333 332 332 333 333
305 306 306 306 306 306 306 306 306 305 306 306 306 307 303 303 307 307 309 308 310 310 309 308 308 307 307 308 309 312 313 317 312 312 314 315 317 320 326 330 333 332 331 331 331 332 340
307 307 308 308 308 308 308 307 307 306 307 307 307 308 306 303 304 306 307 310 309 309 310 308 308 308 308 310 311 311 313 314 316 314 314 315 317 319 322 326 330 329 329 329 333 340 336
308 308 309 309 309 308 309 308 307 307 307 307 308 308 307 304 304 306 307 308 308 308 310 308 309 310 311 313 314 315 315 315 315 315 317 316 317 318 320 324 327 323 326 332 333 327 328
310 310 310 309 309 310 309 308 308 307 308 309 308 309 308 307 307 307 308 307 308 308 309 308 308 308 308 310 312 312 312 312 314 315 316 317 318 318 319 321 326 320 321 321 322 323 323
Wind_Speed
19 19 19 20 21 21 22 22 23 24 25 26 27 27 27 27 28 29 29 30 28 26 24 21 18 13 11 12 22 12 16 6 19 26 28 29 31 31 24 22 23 21 22 28 10 28 6
19 19 20 20 21 22 23 23 24 25 26 27 27 27 28 28 29 30 30 31 29 26 23 19 16 11 15 19 17 19 12 12 19 29 31 29 29 30 27 25 22 24 20 20 29 40 10
20 21 22 22 23 25 26 27 28 30 30 30 31 31 30 30 29 30 30 29 27 25 22 18 15 11 16 33 7 10 20 17 20 27 32 30 29 29 30 22 29 26 19 16 15 16 12
21 21 22 24 25 25 27 27 28 29 30 31 32 32 32 32 31 30 28 27 28 24 23 16 12 8 14 9 19 18 19 19 19 22 28 25 26 26 30 25 25 20 20 18 18 18 14
20 21 23 23 24 25 25 26 28 30 31 33 35 35 34 33 32 29 27 25 25 22 20 6 1 9 13 7 23 28 21 26 22 22 24 26 26 29 26 21 20 21 19 22 21 20 19
21 21 22 23 24 25 26 28 30 31 32 33 33 34 34 32 31 26 26 23 21 17 11 4 8 8 20 16 14 26 27 24 27 25 25 28 26 20 21 19 21 22 21 19 22 19 22
21 23 23 24 26 29 30 31 31 31 32 33 34 34 34 30 26 24 27 25 27 2 9 24 14 18 12 8 7 20 31 27 29 29 24 30 19 25 30 26 22 23 21 24 20 22 24
21 22 23 24 26 27 28 29 30 31 32 33 34 34 34 30 20 22 17 19 18 19 30 28 39 45 43 28 19 20 29 33 30 28 26 22 28 27 26 25 26 28 25 24 23 23 19
21 22 23 25 25 26 28 30 31 32 34 35 35 33 33 29 14 18 14 18 22 23 17 31 42 42 48 36 34 25 37 41 29 30 30 28 19 27 26 26 28 28 27 24 22 22 19
22 22 24 25 25 26 29 32 35 36 35 35 35 35 31 30 9 15 17 23 23 19 8 11 14 12 39 32 32 35 36 41 28 32 30 27 32 29 27 29 26 26 27 25 25 21 18
21 22 23 24 26 30 31 32 33 34 33 32 30 30 27 15 18 15 25 25 21 10 8 8 10 5 11 36 10 43 37 42 32 25 31 30 26 30 28 28 26 24 24 25 25 23 19
21 22 24 27 30 31 32 31 30 32 31 31 29 26 22 13 13 18 24 23 13 6 10 8 12 22 9 29 36 13 43 43 39 26 28 31 32 25 25 25 26 24 22 23 23 18 17
21 23 26 28 29 29 30 31 32 33 35 34 31 15 9 10 11 24 21 16 7 9 16 18 27 28 27 19 28 30 31 31 28 31 28 29 34 29 27 22 25 22 21 14 14 16 16
21 23 25 26 28 29 30 31 33 34 36 36 32 11 11 10 19 19 17 11 11 13 25 31 24 26 23 20 18 27 26 28 33 30 17 23 26 36 23 31 25 28 25 15 22 17 17
21 23 24 25 27 29 31 32 33 35 37 38 30 18 12 6 20 14 15 10 7 18 16 20 27 20 22 29 22 19 31 30 32 34 32 23 30 31 33 26 26 23 25 24 21 20 16
20 22 23 24 26 28 31 33 34 36 39 37 29 23 16 11 17 14 12 15 9 10 19 20 21 21 23 26 24 25 17 25 27 33 31 28 18 30 33 26 28 27 22 21 17 20 19
20 21 22 23 24 27 30 33 34 37 40 36 20 14 6 17 14 19 10 13 20 20 22 17 18 20 18 20 20 24 10 10 24 18 31 30 24 22 29 31 27 22 21 25 19 16 15
19 20 21 22 23 26 29 32 34 35 39 36 16 8 17 17 19 13 9 10 10 17 24 17 13 15 10 17 14 16 19 12 37 28 16 34 23 21 27 27 30 28 28 25 13 22 15
19 20 20 22 24 26 27 30 34 34 32 35 18 22 8 17 7 10 15 15 19 13 20 11 18 15 17 13 10 14 17 30 37 28 14 12 19 20 26 23 29 32 29 26 22 18 19
20 21 21 23 25 26 26 28 31 33 28 27 11 7 19 16 17 17 15 15 19 11 17 15 12 14 16 13 13 9 17 15 35 30 19 9 10 21 19 21 19 27 29 28 25 17 16
23 23 24 24 25 27 26 27 28 29 26 15 8 6 12 8 13 14 16 14 19 18 8 17 17 10 14 15 13 9 16 26 26 25 23 8 13 19 29 24 22 26 27 29 30 21 22
25 25 25 25 26 27 26 26 27 26 24 10 6 7 12 22 22 16 12 7 14 16 12 16 17 15 16 14 11 14 16 15 10 22 20 19 8 13 17 22 19 18 31 29 29 29 23
26 26 27 26 27 28 26 26 26 23 16 7 8 15 10 12 16 12 11 15 16 18 16 18 12 18 19 15 19 20 23 20 18 21 18 14 12 9 16 17 21 19 16 28 26 24 24
26 27 27 27 28 28 28 26 24 21 14 15 18 15 6 7 13 13 19 19 14 13 15 19 25 16 25 21 22 22 26 23 20 17 15 12 12 9 11 13 18 12 13 13 21 23 23
28 30 29 28 30 29 28 27 24 21 15 16 20 18 5 4 14 18 17 17 21 19 13 21 19 25 17 22 13 15 16 14 17 18 14 10 10 7 6 8 9 13 14 16 9 15 20
29 30 30 29 31 30 28 27 25 22 17 17 21 21 12 6 9 20 16 25 12 11 12 16 10 17 16 11 9 14 5 12 12 14 13 11 10 7 9 6 12 6 14 4 16 9 21
30 31 31 30 30 28 27 26 25 21 17 17 22 20 21 8 20 20 13 11 18 13 8 13 15 22 12 5 8 11 9 10 6 17 13 11 9 11 8 6 3 13 19 10 13 6 19
31 32 31 30 29 27 27 26 24 21 18 14 21 17 20 11 24 28 23 22 19 13 7 15 10 6 3 4 4 6 6 7 7 4 7 11 11 10 11 9 2 25 12 8 9 17 21
32 32 31 29 27 26 26 26 24 22 17 16 20 17 12 23 17 22 26 26 28 25 24 9 11 16 4 4 5 5 12 7 13 7 9 6 4 7 12 11 5 13 8 8 12 13 15
Wind_Direction
32 29 26 23 21 19 16 13 11 7 5 3 359 354 351 346 341 337 333 330 328 321 315 311 304 277 249 231 241 259 283 246 195 201 204 211 210 214 220 229 230 240 187 191 164 287 236
29 27 25 23 22 21 18 13 8 5 4 1 357 353 351 346 342 338 334 330 327 323 317 309 302 272 229 247 250 235 246 236 202 199 206 212 215 217 226 232 237 236 228 182 236 233 223
26 24 23 22 19 16 13 9 5 3 1 358 354 353 351 347 343 339 336 330 330 325 317 305 295 271 238 235 228 226 208 222 203 204 205 211 215 217 225 231 243 249 248 260 237 246 237
24 22 20 19 16 14 12 8 6 3 1 358 355 353 352 347 344 341 339 332 325 323 317 300 281 234 252 267 207 217 213 212 205 211 207 212 215 229 230 238 244 250 253 239 231 232 229
21 19 18 17 15 12 9 6 4 2 360 357 355 352 352 348 344 343 342 336 323 317 317 311 135 210 264 253 218 216 209 206 203 203 208 215 215 227 229 229 241 242 233 235 245 199 220
18 18 16 15 11 9 7 5 3 0 358 355 354 352 352 349 347 353 355 345 342 320 347 318 251 234 249 234 225 211 205 204 201 199 206 220 215 217 227 216 222 230 216 232 226 220 209
16 14 12 10 9 8 6 3 1 359 356 353 352 352 352 351 350 11 7 5 355 307 322 274 245 237 276 267 237 204 199 200 201 201 207 206 217 215 215 223 225 235 223 226 233 224 207
12 9 8 7 8 8 6 3 360 357 355 353 351 351 349 353 353 5 6 7 355 310 301 278 263 260 253 259 258 216 194 197 201 204 203 202 223 217 221 217 228 231 243 235 225 234 214
8 7 5 6 7 7 4 1 359 357 355 352 349 348 347 356 350 357 350 344 333 325 291 288 252 244 238 233 240 217 195 199 201 205 202 213 215 222 219 220 222 223 228 240 244 228 244
5 5 7 4 3 4 5 1 358 354 351 349 346 342 345 344 5 346 343 335 331 327 287 272 212 255 223 217 226 222 201 201 207 211 208 216 222 200 216 220 219 222 225 238 248 248 227
3 4 4 1 1 2 2 359 354 348 346 344 342 337 339 346 334 342 331 328 326 314 292 88 122 4 208 200 170 212 206 204 212 204 210 212 215 221 207 219 215 228 219 226 243 252 257
2 4 3 2 3 359 354 352 350 346 343 341 340 335 343 350 317 320 324 321 312 242 247 350 34 348 250 203 233 225 208 203 212 220 216 227 210 221 217 208 222 218 230 218 225 242 242
2 5 4 2 359 354 352 349 347 346 345 341 337 332 339 329 318 330 328 322 275 245 294 355 340 337 324 291 217 242 190 200 204 215 213 215 227 215 225 218 207 212 216 213 212 215 230
2 5 4 1 356 353 351 350 347 348 347 342 337 311 326 283 328 324 323 290 271 289 353 337 337 315 296 293 289 223 224 208 211 215 212 212 213 218 207 217 201 207 212 213 212 214 219
1 3 360 357 353 351 352 350 350 348 347 346 337 331 278 291 331 325 297 291 27 332 319 319 323 306 344 346 344 294 225 212 207 220 220 205 222 202 228 210 214 199 214 217 227 220 224
356 355 353 353 353 352 349 352 352 350 349 348 330 313 277 314 321 305 282 283 343 291 307 313 313 319 321 321 326 333 290 219 214 209 233 241 219 224 203 215 216 228 197 217 228 240 226
351 349 350 349 353 350 348 351 352 352 352 353 339 309 3 336 313 280 289 344 333 328 341 333 309 316 336 337 320 315 321 318 352 231 210 239 245 227 220 206 207 207 208 209 228 235 239
343 344 346 343 348 347 349 348 350 354 351 357 328 304 330 342 304 348 350 339 312 343 299 325 312 317 344 328 314 312 317 324 335 321 285 212 236 245 231 209 206 212 216 201 220 216 245
337 339 340 337 341 341 347 346 346 351 355 345 318 304 340 345 324 337 335 336 319 336 323 329 327 340 330 309 322 316 330 318 313 324 352 352 230 227 241 213 193 212 206 223 207 233 222
329 331 331 332 333 333 342 341 343 344 358 344 313 321 339 332 349 338 334 320 327 354 341 312 324 323 309 333 320 318 337 319 318 308 324 297 261 240 226 224 202 193 212 207 222 210 227
322 324 325 328 328 327 335 336 338 340 351 358 319 315 341 307 328 317 311 352 325 303 217 322 317 322 309 320 323 293 305 319 331 326 332 274 259 247 237 234 214 194 209 212 211 217 218
320 322 323 324 323 324 330 331 333 337 343 338 319 334 320 297 295 306 306 302 289 337 334 310 316 310 310 311 342 312 322 316 308 317 334 329 282 269 258 251 258 257 197 213 210 221 208
321 322 322 323 320 322 325 327 328 332 337 311 293 315 295 285 297 299 309 316 317 326 320 305 242 293 301 326 307 290 288 271 268 283 310 318 340 307 247 251 253 244 228 198 217 207 220
327 324 324 324 319 319 320 322 324 324 316 292 285 296 276 275 283 300 316 317 318 311 307 305 299 319 306 306 303 291 275 256 254 265 275 296 311 302 271 266 242 239 228 253 219 215 212
323 321 323 321 314 317 317 319 320 317 310 291 280 268 241 265 280 291 301 317 321 297 295 289 317 291 310 304 300 296 279 241 241 241 254 274 289 298 265 240 227 230 229 220 242 203 218
322 322 322 319 316 319 318 317 313 312 308 291 280 279 241 279 250 274 288 305 308 325 313 312 282 303 295 283 288 259 277 320 208 223 224 248 248 278 309 275 217 220 250 224 211 222 0
324 323 322 320 319 319 316 312 312 313 306 290 282 283 233 237 273 276 267 292 310 302 287 301 335 317 13 298 287 272 268 321 266 212 181 205 247 236 239 268 28 324 350 122 204 36 9
324 325 324 321 318 317 316 312 313 314 305 292 284 283 243 241 271 279 278 277 294 286 294 313 324 350 64 311 329 349 18 326 294 33 334 189 186 236 238 241 212 3 18 38 63 39 30
327 326 325 322 320 319 316 315 317 313 307 297 286 293 281 238 248 276 279 276 268 264 278 285 288 316 321 353 354 316 311 286 0 324 147 238 298 212 233 227 37 8 10 34 34 41 23